Time,TemperatureF,DewpointF,PressureIn,WindDirection,WindDirectionDegrees,WindSpeedMPH,WindSpeedGustMPH,Humidity,HourlyPrecipIn,Conditions,Clouds,dailyrainin,SoftwareType,DateUTC
2013-01-01 00:03:00,57.9,56.8,29.96,NNE,18,6.9,6.9,96,0.00,RA,,0.00,WeatherDisplay:10.37,2013-01-01 06:03:00,
2013-01-01 00:08:00,57.9,56.8,29.96,North,354,3.5,3.5,96,0.00,RA,,0.00,WeatherDisplay:10.37,2013-01-01 06:08:00,
2013-01-01 00:13:00,57.9,56.8,29.96,NNE,18,6.9,6.9,96,0.00,CLR,,0.00,WeatherDisplay:10.37,2013-01-01 06:13:00,
2013-01-01 00:18:00,57.9,56.8,29.96,North,4,3.5,3.5,96,0.00,CLR,,0.00,WeatherDisplay:10.37,2013-01-01 06:18:00,
2013-01-01 00:23:00,57.9,56.8,29.97,NNW,342,5.8,5.8,96,0.00,CLR,,0.00,WeatherDisplay:10.37,2013-01-01 06:23:00,
2013-01-01 00:28:00,57.8,56.7,29.97,NNW,333,3.5,3.5,96,0.00,CLR,,0.00,WeatherDisplay:10.37,2013-01-01 06:28:00,
2013-01-01 00:33:00,57.8,56.7,29.96,NE,34,8.1,8.1,96,0.00,CLR,,0.00,WeatherDisplay:10.37,2013-01-01 06:33:00,
2013-01-01 00:38:00,57.8,56.7,29.97,North,9,8.1,8.1,96,0.00,CLR,,0.00,WeatherDisplay:10.37,2013-01-01 06:38:00,
2013-01-01 00:43:00,57.7,56.6,29.97,North,8,11.5,11.5,96,0.00,CLR,,0.00,WeatherDisplay:10.37,2013-01-01 06:43:00,
2013-01-01 00:48:00,57.7,56.6,29.97,North,349,6.9,6.9,96,0.00,CLR,,0.00,WeatherDisplay:10.37,2013-01-01 06:48:00,
2013-01-01 00:53:00,57.7,56.6,29.97,WNW,302,3.5,3.5,96,0.00,CLR,,0.00,WeatherDisplay:10.37,2013-01-01 06:53:00,
2013-01-01 00:58:00,57.6,56.5,29.96,NW,326,5.8,5.8,96,0.00,CLR,,0.00,WeatherDisplay:10.37,2013-01-01 06:58:00,
2013-01-01 01:03:00,57.6,56.5,29.96,NNE,20,8.1,8.1,96,0.00,CLR,,0.00,WeatherDisplay:10.37,2013-01-01 07:03:00,
2013-01-01 01:08:00,57.6,56.5,29.96,NNE,22,6.9,6.9,96,0.01,RA,,0.01,WeatherDisplay:10.37,2013-01-01 07:08:00,
2013-01-01 01:13:00,57.6,56.5,29.96,North,4,10.4,10.4,96,0.01,RA,,0.01,WeatherDisplay:10.37,2013-01-01 07:13:00,
2013-01-01 01:18:00,57.6,56.5,29.96,NNW,340,8.1,8.1,96,0.01,CLR,,0.01,WeatherDisplay:10.37,2013-01-01 07:18:00,
2013-01-01 01:23:00,57.6,56.5,29.96,NE,46,8.1,8.1,96,0.01,CLR,,0.01,WeatherDisplay:10.37,2013-01-01 07:23:00,
2013-01-01 01:28:00,57.7,56.6,29.96,NNE,12,5.8,5.8,96,0.02,RA,,0.02,WeatherDisplay:10.37,2013-01-01 07:28:00,
2013-01-01 01:33:00,57.7,56.6,29.96,NE,42,5.8,5.8,96,0.02,RA,,0.02,WeatherDisplay:10.37,2013-01-01 07:33:00,
2013-01-01 01:38:00,57.7,56.6,29.96,North,352,5.8,5.8,96,0.02,CLR,,0.02,WeatherDisplay:10.37,2013-01-01 07:38:00,
2013-01-01 01:43:00,57.7,56.6,29.96,North,6,3.0,3.0,96,0.02,CLR,,0.02,WeatherDisplay:10.37,2013-01-01 07:43:00,
2013-01-01 01:48:00,57.7,56.6,29.96,North,6,5.8,5.8,96,0.02,CLR,,0.02,WeatherDisplay:10.37,2013-01-01 07:48:00,
2013-01-01 01:53:00,57.7,56.6,29.96,NW,314,5.8,5.8,96,0.02,CLR,,0.02,WeatherDisplay:10.37,2013-01-01 07:53:00,
2013-01-01 01:58:00,57.7,56.6,29.96,North,356,6.9,6.9,96,0.02,CLR,,0.02,WeatherDisplay:10.37,2013-01-01 07:58:00,
2013-01-01 02:03:00,57.7,56.6,29.95,NNW,345,4.6,4.6,96,0.02,CLR,,0.02,WeatherDisplay:10.37,2013-01-01 08:03:00,
2013-01-01 02:08:00,57.7,56.6,29.96,ENE,61,4.6,4.6,96,0.01,CLR,,0.02,WeatherDisplay:10.37,2013-01-01 08:08:00,
2013-01-01 02:13:00,57.6,56.5,29.96,NE,49,3.5,3.5,96,0.02,RA,,0.03,WeatherDisplay:10.37,2013-01-01 08:13:00,
2013-01-01 02:18:00,57.5,56.4,29.96,NNE,16,3.5,3.5,96,0.02,RA,,0.03,WeatherDisplay:10.37,2013-01-01 08:18:00,
2013-01-01 02:23:00,57.5,56.4,29.95,NNE,23,8.0,8.0,96,0.02,,,0.03,WeatherDisplay:10.37,2013-01-01 08:23:00,
2013-01-01 02:28:00,57.4,56.3,29.95,NNE,15,8.1,8.1,96,0.01,CLR,,0.03,WeatherDisplay:10.37,2013-01-01 08:28:00,
2013-01-01 02:33:00,57.3,56.2,29.95,NE,41,9.2,9.2,96,0.01,CLR,,0.03,WeatherDisplay:10.37,2013-01-01 08:33:00,
2013-01-01 02:38:00,57.2,56.1,29.95,NNE,19,9.2,9.2,96,0.02,RA,,0.04,WeatherDisplay:10.37,2013-01-01 08:38:00,
2013-01-01 02:43:00,57.2,56.1,29.95,NNE,27,10.4,10.4,96,0.02,RA,,0.04,WeatherDisplay:10.37,2013-01-01 08:43:00,
2013-01-01 02:48:00,57.2,56.1,29.95,North,1,9.2,9.2,96,0.02,,,0.04,WeatherDisplay:10.37,2013-01-01 08:48:00,
2013-01-01 02:53:00,57.2,56.1,29.96,NE,45,6.9,6.9,96,0.02,CLR,,0.04,WeatherDisplay:10.37,2013-01-01 08:53:00,
2013-01-01 02:58:00,57.2,56.1,29.96,ENE,69,4.6,4.6,96,0.02,CLR,,0.04,WeatherDisplay:10.37,2013-01-01 08:58:00,
2013-01-01 03:03:00,57.2,56.1,29.96,NNE,32,3.5,3.5,96,0.02,CLR,,0.04,WeatherDisplay:10.37,2013-01-01 09:03:00,
2013-01-01 03:08:00,57.1,56.0,29.96,NNE,30,4.6,4.6,96,0.03,RA,,0.05,WeatherDisplay:10.37,2013-01-01 09:08:00,
2013-01-01 03:13:00,57.1,56.0,29.97,North,5,6.0,6.0,96,0.02,RA,,0.05,WeatherDisplay:10.37,2013-01-01 09:13:00,
2013-01-01 03:18:00,57.1,56.0,29.97,NE,47,6.9,6.9,96,0.02,CLR,,0.05,WeatherDisplay:10.37,2013-01-01 09:18:00,
2013-01-01 03:23:00,57.0,55.9,29.97,NE,56,5.8,5.8,96,0.02,CLR,,0.05,WeatherDisplay:10.37,2013-01-01 09:23:00,
2013-01-01 03:28:00,57.1,56.0,29.97,NNE,25,6.9,6.9,96,0.02,CLR,,0.05,WeatherDisplay:10.37,2013-01-01 09:28:00,
2013-01-01 03:33:00,57.1,56.0,29.97,NNE,15,6.9,6.9,96,0.02,CLR,,0.05,WeatherDisplay:10.37,2013-01-01 09:33:00,
2013-01-01 03:38:00,57.0,55.9,29.98,NNW,333,8.1,8.1,96,0.01,CLR,,0.05,WeatherDisplay:10.37,2013-01-01 09:38:00,
2013-01-01 03:43:00,57.0,55.9,29.98,NNW,340,9.2,9.2,96,0.01,CLR,,0.05,WeatherDisplay:10.37,2013-01-01 09:43:00,
2013-01-01 03:48:00,56.9,55.8,29.98,NNW,329,9.2,9.2,96,0.01,CLR,,0.05,WeatherDisplay:10.37,2013-01-01 09:48:00,
2013-01-01 03:53:00,56.9,55.8,29.98,North,357,5.8,5.8,96,0.01,CLR,,0.05,WeatherDisplay:10.37,2013-01-01 09:53:00,
2013-01-01 03:58:00,57.0,55.9,29.98,North,11,6.9,6.9,96,0.01,CLR,,0.05,WeatherDisplay:10.37,2013-01-01 09:58:00,
2013-01-01 04:03:00,57.0,55.9,29.98,NNW,336,3.5,3.5,96,0.01,CLR,,0.05,WeatherDisplay:10.37,2013-01-01 10:03:00,
2013-01-01 04:08:00,57.0,55.9,29.98,NNW,345,5.8,5.8,96,0.00,CLR,,0.05,WeatherDisplay:10.37,2013-01-01 10:08:00,
2013-01-01 04:13:00,57.0,55.9,29.99,North,358,5.8,5.8,96,0.00,CLR,,0.05,WeatherDisplay:10.37,2013-01-01 10:13:00,
2013-01-01 04:18:00,57.0,55.9,29.98,NNW,340,6.9,6.9,96,0.00,CLR,,0.05,WeatherDisplay:10.37,2013-01-01 10:18:00,
2013-01-01 04:23:00,57.1,56.0,29.99,NNW,333,10.4,10.4,96,0.00,CLR,,0.05,WeatherDisplay:10.37,2013-01-01 10:23:00,
2013-01-01 04:28:00,57.1,56.0,29.98,North,353,10.4,10.4,96,0.00,CLR,,0.05,WeatherDisplay:10.37,2013-01-01 10:28:00,
2013-01-01 04:33:00,57.1,56.0,29.98,North,353,12.7,12.7,96,0.01,RA,,0.06,WeatherDisplay:10.37,2013-01-01 10:33:00,
2013-01-01 04:38:00,57.1,56.0,29.97,NNE,12,16.1,16.1,96,0.02,RA,,0.07,WeatherDisplay:10.37,2013-01-01 10:38:00,
2013-01-01 04:43:00,57.1,56.0,29.98,North,5,10.4,10.4,96,0.02,RA,,0.07,WeatherDisplay:10.37,2013-01-01 10:43:00,
2013-01-01 04:48:00,57.1,56.0,29.98,North,352,10.4,10.4,96,0.02,,,0.07,WeatherDisplay:10.37,2013-01-01 10:48:00,
2013-01-01 04:53:00,57.0,55.9,29.99,NNE,19,3.5,3.5,96,0.02,CLR,,0.07,WeatherDisplay:10.37,2013-01-01 10:53:00,
2013-01-01 04:58:00,57.0,55.9,29.99,NNE,16,3.5,3.5,96,0.02,CLR,,0.07,WeatherDisplay:10.37,2013-01-01 10:58:00,
2013-01-01 05:03:00,56.8,55.7,29.99,North,5,3.5,3.5,96,0.02,CLR,,0.07,WeatherDisplay:10.37,2013-01-01 11:03:00,
2013-01-01 05:08:00,56.5,55.4,29.98,NNE,15,12.0,12.0,96,0.02,CLR,,0.07,WeatherDisplay:10.37,2013-01-01 11:08:00,
2013-01-01 05:13:00,56.2,55.1,29.98,North,11,15.0,15.0,96,0.02,CLR,,0.07,WeatherDisplay:10.37,2013-01-01 11:13:00,
2013-01-01 05:18:00,55.9,54.8,29.99,North,6,10.4,10.4,96,0.02,CLR,,0.07,WeatherDisplay:10.37,2013-01-01 11:18:00,
2013-01-01 05:23:00,55.7,54.6,29.99,NNE,25,9.2,9.2,96,0.02,CLR,,0.07,WeatherDisplay:10.37,2013-01-01 11:23:00,
2013-01-01 05:28:00,55.4,54.3,30.00,NE,34,11.5,11.5,96,0.02,CLR,,0.07,WeatherDisplay:10.37,2013-01-01 11:28:00,
2013-01-01 05:33:00,55.1,54.0,30.00,NE,54,11.5,11.5,96,0.01,CLR,,0.07,WeatherDisplay:10.37,2013-01-01 11:33:00,
2013-01-01 05:38:00,55.0,53.9,30.00,NNW,345,4.6,4.9,96,0.00,CLR,,0.07,WeatherDisplay:10.37,2013-01-01 11:38:00,
2013-01-01 05:43:00,54.6,53.5,30.01,NNE,23,11.5,11.5,96,0.00,CLR,,0.07,WeatherDisplay:10.37,2013-01-01 11:43:00,
2013-01-01 05:48:00,54.3,53.2,30.02,NE,34,12.7,12.7,96,0.00,CLR,,0.07,WeatherDisplay:10.37,2013-01-01 11:48:00,
2013-01-01 05:53:00,54.1,53.0,30.02,NNE,16,11.0,11.0,96,0.00,CLR,,0.07,WeatherDisplay:10.37,2013-01-01 11:53:00,
2013-01-01 05:58:00,53.8,52.7,30.01,NE,50,15.0,15.0,96,0.00,CLR,,0.07,WeatherDisplay:10.37,2013-01-01 11:58:00,
2013-01-01 06:03:00,53.6,52.5,30.02,NNE,19,12.7,12.7,96,0.00,CLR,,0.07,WeatherDisplay:10.37,2013-01-01 12:03:00,
2013-01-01 06:08:00,53.5,52.4,30.01,NNE,25,12.7,12.7,96,0.00,CLR,,0.07,WeatherDisplay:10.37,2013-01-01 12:08:00,
2013-01-01 06:13:00,53.4,52.3,30.01,NE,45,16.1,16.1,96,0.00,CLR,,0.07,WeatherDisplay:10.37,2013-01-01 12:13:00,
2013-01-01 06:18:00,53.3,52.2,30.01,NE,34,12.7,12.7,96,0.00,CLR,,0.07,WeatherDisplay:10.37,2013-01-01 12:18:00,
2013-01-01 06:23:00,53.2,52.1,30.02,NNE,13,18.4,18.4,96,0.00,CLR,,0.07,WeatherDisplay:10.37,2013-01-01 12:23:00,
2013-01-01 06:28:00,53.2,52.1,30.03,NNE,15,11.5,11.5,96,0.00,CLR,,0.07,WeatherDisplay:10.37,2013-01-01 12:28:00,
2013-01-01 06:33:00,52.8,51.4,30.03,NNW,347,15.0,15.0,95,0.00,CLR,,0.07,WeatherDisplay:10.37,2013-01-01 12:33:00,
2013-01-01 06:38:00,52.5,51.1,30.04,NE,56,11.5,11.5,95,0.00,CLR,,0.07,WeatherDisplay:10.37,2013-01-01 12:38:00,
2013-01-01 06:43:00,52.2,50.8,30.04,NNE,20,18.4,18.4,95,0.00,CLR,,0.07,WeatherDisplay:10.37,2013-01-01 12:43:00,
2013-01-01 06:48:00,52.0,50.6,30.04,NE,47,11.5,11.5,95,0.00,CLR,,0.07,WeatherDisplay:10.37,2013-01-01 12:48:00,
2013-01-01 06:53:00,51.8,50.4,30.04,NE,44,13.8,13.8,95,0.01,RA,,0.08,WeatherDisplay:10.37,2013-01-01 12:53:00,
2013-01-01 06:58:00,51.6,50.2,30.04,NNE,25,13.8,13.8,95,0.01,RA,,0.08,WeatherDisplay:10.37,2013-01-01 12:58:00,
2013-01-01 07:03:00,51.3,49.9,30.04,NNE,17,16.1,16.1,95,0.02,RA,,0.09,WeatherDisplay:10.37,2013-01-01 13:03:00,
2013-01-01 07:08:00,51.0,49.6,30.05,NNE,16,19.6,19.6,95,0.02,RA,,0.09,WeatherDisplay:10.37,2013-01-01 13:08:00,
2013-01-01 07:13:00,50.6,49.2,30.05,NE,41,12.7,12.7,95,0.02,CLR,,0.09,WeatherDisplay:10.37,2013-01-01 13:13:00,
2013-01-01 07:18:00,50.4,49.0,30.06,NE,41,16.1,16.1,95,0.02,CLR,,0.09,WeatherDisplay:10.37,2013-01-01 13:18:00,
2013-01-01 07:23:00,50.2,48.5,30.06,NNE,27,12.7,12.7,94,0.02,CLR,,0.09,WeatherDisplay:10.37,2013-01-01 13:23:00,
2013-01-01 07:28:00,49.9,48.2,30.07,North,8,12.7,12.7,94,0.02,CLR,,0.09,WeatherDisplay:10.37,2013-01-01 13:28:00,
2013-01-01 07:33:00,49.7,48.0,30.07,NNW,345,11.5,11.5,94,0.02,CLR,,0.09,WeatherDisplay:10.37,2013-01-01 13:33:00,
2013-01-01 07:38:00,49.6,47.7,30.08,NE,44,13.8,13.8,93,0.02,CLR,,0.09,WeatherDisplay:10.37,2013-01-01 13:38:00,
2013-01-01 07:43:00,49.4,47.5,30.08,NE,41,15.0,15.0,93,0.02,CLR,,0.09,WeatherDisplay:10.37,2013-01-01 13:43:00,
2013-01-01 07:48:00,49.4,47.2,30.07,North,1,11.5,11.5,92,0.02,CLR,,0.09,WeatherDisplay:10.37,2013-01-01 13:48:00,
2013-01-01 07:53:00,49.3,47.1,30.08,NNE,25,12.7,12.7,92,0.01,CLR,,0.09,WeatherDisplay:10.37,2013-01-01 13:53:00,
2013-01-01 07:58:00,49.3,47.1,30.08,NNE,18,8.0,8.0,92,0.01,CLR,,0.09,WeatherDisplay:10.37,2013-01-01 13:58:00,
2013-01-01 08:03:00,49.3,47.1,30.09,NE,34,16.1,16.1,92,0.00,CLR,,0.09,WeatherDisplay:10.37,2013-01-01 14:03:00,
2013-01-01 08:08:00,49.2,46.7,30.09,North,1,15.0,15.0,91,0.00,CLR,,0.09,WeatherDisplay:10.37,2013-01-01 14:08:00,
2013-01-01 08:13:00,49.1,46.3,30.10,NW,321,16.1,16.1,90,0.00,CLR,,0.09,WeatherDisplay:10.37,2013-01-01 14:13:00,
2013-01-01 08:18:00,49.1,46.3,30.10,North,349,12.7,12.7,90,0.00,CLR,,0.09,WeatherDisplay:10.37,2013-01-01 14:18:00,
2013-01-01 08:23:00,49.0,46.2,30.10,North,9,12.7,12.7,90,0.00,CLR,,0.09,WeatherDisplay:10.37,2013-01-01 14:23:00,
2013-01-01 08:28:00,48.9,46.1,30.11,NNE,21,16.1,16.1,90,0.01,RA,,0.10,WeatherDisplay:10.37,2013-01-01 14:28:00,
2013-01-01 08:33:00,48.7,46.2,30.11,North,352,12.7,12.7,91,0.02,RA,,0.11,WeatherDisplay:10.37,2013-01-01 14:33:00,
2013-01-01 08:38:00,48.7,46.2,30.11,NNE,14,15.0,15.0,91,0.02,RA,,0.11,WeatherDisplay:10.37,2013-01-01 14:38:00,
2013-01-01 08:43:00,48.6,45.8,30.11,NNE,19,15.0,15.0,90,0.02,CLR,,0.11,WeatherDisplay:10.37,2013-01-01 14:43:00,
2013-01-01 08:48:00,48.7,45.9,30.11,NNE,15,13.8,13.8,90,0.02,CLR,,0.11,WeatherDisplay:10.37,2013-01-01 14:48:00,
2013-01-01 08:53:00,48.7,45.9,30.11,NNE,29,11.5,11.5,90,0.02,CLR,,0.11,WeatherDisplay:10.37,2013-01-01 14:53:00,
2013-01-01 08:58:00,48.7,45.6,30.11,NE,53,18.4,18.4,89,0.02,CLR,,0.11,WeatherDisplay:10.37,2013-01-01 14:58:00,
2013-01-01 09:03:00,48.6,45.5,30.11,NNE,27,12.7,12.7,89,0.02,CLR,,0.11,WeatherDisplay:10.37,2013-01-01 15:03:00,
2013-01-01 09:08:00,48.6,45.5,30.11,NNE,25,13.8,13.8,89,0.02,CLR,,0.11,WeatherDisplay:10.37,2013-01-01 15:08:00,
2013-01-01 09:13:00,48.6,45.2,30.12,NNE,27,11.5,11.5,88,0.02,CLR,,0.11,WeatherDisplay:10.37,2013-01-01 15:13:00,
2013-01-01 09:18:00,48.5,45.1,30.12,NNE,20,12.7,12.7,88,0.02,CLR,,0.11,WeatherDisplay:10.37,2013-01-01 15:18:00,
2013-01-01 09:23:00,48.5,45.1,30.12,NE,36,12.7,12.7,88,0.02,CLR,,0.11,WeatherDisplay:10.37,2013-01-01 15:23:00,
2013-01-01 09:28:00,48.5,45.1,30.12,NNE,13,11.5,11.5,88,0.01,CLR,,0.11,WeatherDisplay:10.37,2013-01-01 15:28:00,
2013-01-01 09:33:00,48.5,45.1,30.12,NE,56,12.7,12.7,88,0.00,CLR,,0.11,WeatherDisplay:10.37,2013-01-01 15:33:00,
2013-01-01 09:38:00,48.4,45.3,30.13,NNW,334,12.7,12.7,89,0.00,CLR,,0.11,WeatherDisplay:10.37,2013-01-01 15:38:00,
2013-01-01 09:43:00,48.4,45.3,30.13,North,6,18.4,18.4,89,0.00,CLR,,0.11,WeatherDisplay:10.37,2013-01-01 15:43:00,
2013-01-01 09:48:00,48.4,45.6,30.13,NNE,19,13.8,13.8,90,0.00,CLR,,0.11,WeatherDisplay:10.37,2013-01-01 15:48:00,
2013-01-01 09:53:00,48.4,45.6,30.13,ENE,74,17.3,17.3,90,0.00,CLR,,0.11,WeatherDisplay:10.37,2013-01-01 15:53:00,
2013-01-01 09:58:00,48.4,45.6,30.14,North,5,13.8,13.8,90,0.00,CLR,,0.11,WeatherDisplay:10.37,2013-01-01 15:58:00,
2013-01-01 10:03:00,48.5,45.7,30.14,NNW,345,13.8,13.8,90,0.00,CLR,,0.11,WeatherDisplay:10.37,2013-01-01 16:03:00,
2013-01-01 10:08:00,48.7,46.2,30.15,NNE,30,12.7,12.7,91,0.00,CLR,,0.11,WeatherDisplay:10.37,2013-01-01 16:08:00,
2013-01-01 10:13:00,48.8,46.0,30.15,NNE,12,18.4,18.4,90,0.00,CLR,,0.11,WeatherDisplay:10.37,2013-01-01 16:13:00,
2013-01-01 10:18:00,48.9,46.1,30.15,North,6,12.7,12.7,90,0.00,CLR,,0.11,WeatherDisplay:10.37,2013-01-01 16:18:00,
2013-01-01 10:23:00,49.1,46.0,30.15,NE,39,17.3,17.3,89,0.00,CLR,,0.11,WeatherDisplay:10.37,2013-01-01 16:23:00,
2013-01-01 10:28:00,49.1,46.0,30.15,North,4,15.0,15.0,89,0.00,CLR,,0.11,WeatherDisplay:10.37,2013-01-01 16:28:00,
2013-01-01 10:33:00,49.1,45.7,30.15,North,351,17.3,17.3,88,0.00,CLR,,0.11,WeatherDisplay:10.37,2013-01-01 16:33:00,
2013-01-01 10:38:00,49.3,45.9,30.15,NE,34,13.8,13.8,88,0.00,CLR,,0.11,WeatherDisplay:10.37,2013-01-01 16:38:00,
2013-01-01 10:43:00,49.3,45.9,30.16,North,357,13.8,13.8,88,0.00,CLR,,0.11,WeatherDisplay:10.37,2013-01-01 16:43:00,
2013-01-01 10:48:00,49.3,46.2,30.16,NNE,20,18.4,18.4,89,0.00,CLR,,0.11,WeatherDisplay:10.37,2013-01-01 16:48:00,
2013-01-01 10:53:00,49.4,46.3,30.16,NNE,25,15.0,15.0,89,0.00,CLR,,0.11,WeatherDisplay:10.37,2013-01-01 16:53:00,
2013-01-01 10:58:00,49.5,46.7,30.16,NNE,21,12.7,12.7,90,0.00,CLR,,0.11,WeatherDisplay:10.37,2013-01-01 16:58:00,
2013-01-01 11:03:00,49.6,46.8,30.16,NNE,18,11.5,11.5,90,0.00,CLR,,0.11,WeatherDisplay:10.37,2013-01-01 17:03:00,
2013-01-01 11:08:00,50.0,47.5,30.16,NNE,25,15.0,15.0,91,0.00,CLR,,0.11,WeatherDisplay:10.37,2013-01-01 17:08:00,
2013-01-01 11:13:00,50.1,47.3,30.17,NNE,15,13.8,13.8,90,0.00,CLR,,0.11,WeatherDisplay:10.37,2013-01-01 17:13:00,
2013-01-01 11:18:00,50.3,47.2,30.17,North,356,18.4,18.4,89,0.00,CLR,,0.11,WeatherDisplay:10.37,2013-01-01 17:18:00,
2013-01-01 11:23:00,50.6,47.5,30.17,NNE,25,15.0,15.0,89,0.00,CLR,,0.11,WeatherDisplay:10.37,2013-01-01 17:23:00,
2013-01-01 11:28:00,50.9,47.5,30.16,North,354,12.7,12.7,88,0.00,CLR,,0.11,WeatherDisplay:10.37,2013-01-01 17:28:00,
2013-01-01 11:33:00,51.1,47.7,30.16,NNE,15,12.7,12.7,88,0.00,CLR,,0.11,WeatherDisplay:10.37,2013-01-01 17:33:00,
2013-01-01 11:38:00,51.4,48.0,30.16,North,353,13.8,13.8,88,0.00,CLR,,0.11,WeatherDisplay:10.37,2013-01-01 17:38:00,
2013-01-01 11:43:00,51.4,48.0,30.16,North,354,11.5,11.5,88,0.00,CLR,,0.11,WeatherDisplay:10.37,2013-01-01 17:43:00,
2013-01-01 11:48:00,51.3,47.6,30.16,North,4,15.0,15.0,87,0.00,CLR,,0.11,WeatherDisplay:10.37,2013-01-01 17:48:00,
2013-01-01 11:53:00,51.3,47.9,30.16,North,11,15.0,15.0,88,0.00,CLR,,0.11,WeatherDisplay:10.37,2013-01-01 17:53:00,
2013-01-01 11:58:00,51.6,48.5,30.16,North,356,9.2,9.2,89,0.00,CLR,,0.11,WeatherDisplay:10.37,2013-01-01 17:58:00,
2013-01-01 12:03:00,51.7,48.0,30.16,NNE,12,11.5,11.5,87,0.00,CLR,,0.11,WeatherDisplay:10.37,2013-01-01 18:03:00,
2013-01-01 12:08:00,51.5,47.8,30.16,NNW,344,15.0,15.0,87,0.00,CLR,,0.11,WeatherDisplay:10.37,2013-01-01 18:08:00,
2013-01-01 12:13:00,51.4,47.7,30.15,North,8,8.1,8.1,87,0.00,CLR,,0.11,WeatherDisplay:10.37,2013-01-01 18:13:00,
2013-01-01 12:18:00,51.3,47.3,30.16,North,356,9.2,9.2,86,0.00,CLR,,0.11,WeatherDisplay:10.37,2013-01-01 18:18:00,
2013-01-01 12:23:00,51.5,47.1,30.15,NNE,27,12.7,12.7,85,0.00,CLR,,0.11,WeatherDisplay:10.37,2013-01-01 18:23:00,
2013-01-01 12:28:00,51.8,47.4,30.15,North,9,11.5,11.5,85,0.00,CLR,,0.11,WeatherDisplay:10.37,2013-01-01 18:28:00,
2013-01-01 12:33:00,51.8,47.1,30.14,NE,47,12.7,12.7,84,0.00,CLR,,0.11,WeatherDisplay:10.37,2013-01-01 18:33:00,
2013-01-01 12:38:00,51.8,47.4,30.14,NNE,13,12.7,12.7,85,0.00,CLR,,0.11,WeatherDisplay:10.37,2013-01-01 18:38:00,
2013-01-01 12:43:00,51.7,47.6,30.14,NNE,15,13.8,13.8,86,0.00,CLR,,0.11,WeatherDisplay:10.37,2013-01-01 18:43:00,
2013-01-01 12:48:00,51.8,47.4,30.15,NNW,347,14.0,14.0,85,0.00,CLR,,0.11,WeatherDisplay:10.37,2013-01-01 18:48:00,
2013-01-01 12:53:00,51.9,47.5,30.14,NNE,13,10.4,10.4,85,0.00,CLR,,0.11,WeatherDisplay:10.37,2013-01-01 18:53:00,
2013-01-01 12:58:00,52.1,47.4,30.14,NNW,341,15.0,15.0,84,0.00,CLR,,0.11,WeatherDisplay:10.37,2013-01-01 18:58:00,
2013-01-01 13:03:00,52.1,47.1,30.14,NNE,21,16.1,16.1,83,0.00,CLR,,0.11,WeatherDisplay:10.37,2013-01-01 19:03:00,
2013-01-01 13:08:00,52.0,47.0,30.14,NNE,17,16.1,16.1,83,0.00,CLR,,0.11,WeatherDisplay:10.37,2013-01-01 19:08:00,
2013-01-01 13:13:00,52.2,47.2,30.14,North,351,15.0,15.0,83,0.00,CLR,,0.11,WeatherDisplay:10.37,2013-01-01 19:13:00,
2013-01-01 13:18:00,52.1,46.8,30.14,NW,318,16.1,16.1,82,0.00,CLR,,0.11,WeatherDisplay:10.37,2013-01-01 19:18:00,
2013-01-01 13:23:00,52.1,47.1,30.13,North,354,12.7,12.7,83,0.00,CLR,,0.11,WeatherDisplay:10.37,2013-01-01 19:23:00,
2013-01-01 13:28:00,52.1,47.1,30.13,NNW,341,16.1,16.1,83,0.00,CLR,,0.11,WeatherDisplay:10.37,2013-01-01 19:28:00,
2013-01-01 13:33:00,52.0,47.0,30.13,ENE,69,15.0,15.0,83,0.00,CLR,,0.11,WeatherDisplay:10.37,2013-01-01 19:33:00,
2013-01-01 13:38:00,52.1,47.4,30.13,NNE,14,13.8,13.8,84,0.00,CLR,,0.11,WeatherDisplay:10.37,2013-01-01 19:38:00,
2013-01-01 13:43:00,52.2,46.9,30.13,NNE,12,13.8,13.8,82,0.00,CLR,,0.11,WeatherDisplay:10.37,2013-01-01 19:43:00,
2013-01-01 13:48:00,52.0,46.7,30.13,NNE,15,11.5,11.5,82,0.00,CLR,,0.11,WeatherDisplay:10.37,2013-01-01 19:48:00,
2013-01-01 13:53:00,52.2,46.5,30.12,North,356,13.8,13.8,81,0.00,CLR,,0.11,WeatherDisplay:10.37,2013-01-01 19:53:00,
2013-01-01 13:58:00,52.3,46.6,30.13,North,353,15.0,15.0,81,0.00,CLR,,0.11,WeatherDisplay:10.37,2013-01-01 19:58:00,
2013-01-01 14:03:00,52.1,46.1,30.13,NW,321,15.0,15.0,80,0.00,CLR,,0.11,WeatherDisplay:10.37,2013-01-01 20:03:00,
2013-01-01 14:08:00,52.1,46.4,30.13,NNW,345,11.5,11.5,81,0.00,CLR,,0.11,WeatherDisplay:10.37,2013-01-01 20:08:00,
2013-01-01 14:13:00,52.1,46.1,30.13,NNW,342,10.4,10.4,80,0.00,CLR,,0.11,WeatherDisplay:10.37,2013-01-01 20:13:00,
2013-01-01 14:18:00,52.0,46.0,30.14,NNW,338,12.7,12.7,80,0.00,CLR,,0.11,WeatherDisplay:10.37,2013-01-01 20:18:00,
2013-01-01 14:23:00,52.0,46.0,30.14,NE,34,15.0,15.0,80,0.00,CLR,,0.11,WeatherDisplay:10.37,2013-01-01 20:23:00,
2013-01-01 14:28:00,51.9,45.6,30.14,NNW,338,11.5,11.5,79,0.00,CLR,,0.11,WeatherDisplay:10.37,2013-01-01 20:28:00,
2013-01-01 14:33:00,51.9,45.6,30.14,NNW,332,11.5,11.5,79,0.00,CLR,,0.11,WeatherDisplay:10.37,2013-01-01 20:33:00,
2013-01-01 14:38:00,52.2,46.2,30.14,NE,37,13.8,13.8,80,0.00,CLR,,0.11,WeatherDisplay:10.37,2013-01-01 20:38:00,
2013-01-01 14:43:00,52.3,46.0,30.13,NNE,18,11.5,11.5,79,0.00,CLR,,0.11,WeatherDisplay:10.37,2013-01-01 20:43:00,
2013-01-01 14:48:00,52.5,45.8,30.13,ENE,70,11.5,11.5,78,0.00,CLR,,0.11,WeatherDisplay:10.37,2013-01-01 20:48:00,
2013-01-01 14:53:00,52.4,45.4,30.14,NE,53,13.8,13.8,77,0.00,CLR,,0.11,WeatherDisplay:10.37,2013-01-01 20:53:00,
2013-01-01 14:58:00,52.3,45.3,30.14,NNE,33,11.5,11.5,77,0.00,CLR,,0.11,WeatherDisplay:10.37,2013-01-01 20:58:00,
2013-01-01 15:03:00,52.3,45.6,30.14,North,353,11.5,11.5,78,0.00,CLR,,0.11,WeatherDisplay:10.37,2013-01-01 21:03:00,
2013-01-01 15:08:00,52.1,45.8,30.14,NE,44,11.5,11.5,79,0.00,CLR,,0.11,WeatherDisplay:10.37,2013-01-01 21:08:00,
2013-01-01 15:13:00,52.0,45.7,30.14,NNE,30,16.1,16.1,79,0.00,CLR,,0.11,WeatherDisplay:10.37,2013-01-01 21:13:00,
2013-01-01 15:18:00,52.2,45.5,30.14,North,1,11.5,11.5,78,0.00,CLR,,0.11,WeatherDisplay:10.37,2013-01-01 21:18:00,
2013-01-01 15:23:00,52.2,44.9,30.13,North,359,13.8,13.8,76,0.00,CLR,,0.11,WeatherDisplay:10.37,2013-01-01 21:23:00,
2013-01-01 15:28:00,52.4,45.1,30.14,North,6,11.5,11.5,76,0.00,CLR,,0.11,WeatherDisplay:10.37,2013-01-01 21:28:00,
2013-01-01 15:33:00,52.5,45.2,30.14,NNW,336,10.4,10.4,76,0.00,CLR,,0.11,WeatherDisplay:10.37,2013-01-01 21:33:00,
2013-01-01 15:38:00,52.7,45.7,30.14,NE,41,11.5,11.5,77,0.00,CLR,,0.11,WeatherDisplay:10.37,2013-01-01 21:38:00,
2013-01-01 15:43:00,52.4,45.7,30.15,NNE,25,11.5,11.5,78,0.00,CLR,,0.11,WeatherDisplay:10.37,2013-01-01 21:43:00,
2013-01-01 15:48:00,52.2,45.9,30.14,NNE,19,9.2,9.2,79,0.00,CLR,,0.11,WeatherDisplay:10.37,2013-01-01 21:48:00,
2013-01-01 15:53:00,52.1,45.8,30.15,North,352,13.8,13.8,79,0.00,CLR,,0.11,WeatherDisplay:10.37,2013-01-01 21:53:00,
2013-01-01 15:58:00,51.9,45.6,30.15,NNE,17,13.8,13.8,79,0.00,CLR,,0.11,WeatherDisplay:10.37,2013-01-01 21:58:00,
2013-01-01 16:03:00,51.7,45.7,30.15,NE,34,11.5,11.5,80,0.00,CLR,,0.11,WeatherDisplay:10.37,2013-01-01 22:03:00,
2013-01-01 16:08:00,51.6,46.0,30.15,North,5,9.2,9.2,81,0.00,CLR,,0.11,WeatherDisplay:10.37,2013-01-01 22:08:00,
2013-01-01 16:13:00,51.5,45.2,30.16,NNE,15,14.0,14.0,79,0.00,CLR,,0.11,WeatherDisplay:10.37,2013-01-01 22:13:00,
2013-01-01 16:18:00,51.0,44.7,30.15,North,9,10.4,10.4,79,0.00,CLR,,0.11,WeatherDisplay:10.37,2013-01-01 22:18:00,
2013-01-01 16:23:00,50.8,44.5,30.16,North,9,11.5,11.5,79,0.00,CLR,,0.11,WeatherDisplay:10.37,2013-01-01 22:23:00,
2013-01-01 16:28:00,50.5,44.6,30.16,NNE,21,13.8,13.8,80,0.00,CLR,,0.11,WeatherDisplay:10.37,2013-01-01 22:28:00,
2013-01-01 16:33:00,50.1,44.2,30.16,North,358,11.5,11.5,80,0.00,CLR,,0.11,WeatherDisplay:10.37,2013-01-01 22:33:00,
2013-01-01 16:38:00,49.9,44.3,30.16,NNE,25,11.5,11.5,81,0.00,CLR,,0.11,WeatherDisplay:10.37,2013-01-01 22:38:00,
2013-01-01 16:43:00,49.7,43.8,30.16,NNW,338,16.1,16.1,80,0.00,CLR,,0.11,WeatherDisplay:10.37,2013-01-01 22:43:00,
2013-01-01 16:48:00,49.5,43.6,30.16,NNE,18,11.5,11.5,80,0.00,CLR,,0.11,WeatherDisplay:10.37,2013-01-01 22:48:00,
2013-01-01 16:53:00,49.4,43.8,30.16,NW,323,11.5,11.5,81,0.00,CLR,,0.11,WeatherDisplay:10.37,2013-01-01 22:53:00,
2013-01-01 16:58:00,49.3,43.7,30.16,North,8,11.5,11.5,81,0.00,CLR,,0.11,WeatherDisplay:10.37,2013-01-01 22:58:00,
2013-01-01 17:03:00,49.3,43.7,30.16,NW,324,11.5,11.5,81,0.00,CLR,,0.11,WeatherDisplay:10.37,2013-01-01 23:03:00,
2013-01-01 17:08:00,49.2,43.6,30.16,NNW,340,12.7,12.7,81,0.00,CLR,,0.11,WeatherDisplay:10.37,2013-01-01 23:08:00,
2013-01-01 17:13:00,49.1,43.8,30.17,NNE,17,11.5,11.5,82,0.00,CLR,,0.11,WeatherDisplay:10.37,2013-01-01 23:13:00,
2013-01-01 17:18:00,49.0,43.7,30.17,NNE,16,12.0,12.0,82,0.00,CLR,,0.11,WeatherDisplay:10.37,2013-01-01 23:18:00,
2013-01-01 17:23:00,48.7,43.1,30.17,NE,37,12.7,12.7,81,0.00,CLR,,0.11,WeatherDisplay:10.37,2013-01-01 23:23:00,
2013-01-01 17:28:00,48.5,42.9,30.17,NNW,343,9.2,9.2,81,0.00,CLR,,0.11,WeatherDisplay:10.37,2013-01-01 23:28:00,
2013-01-01 17:33:00,48.3,42.7,30.17,NW,321,11.5,11.5,81,0.00,CLR,,0.11,WeatherDisplay:10.37,2013-01-01 23:33:00,
2013-01-01 17:38:00,48.1,42.2,30.17,NNW,340,10.4,10.4,80,0.00,CLR,,0.11,WeatherDisplay:10.37,2013-01-01 23:38:00,
2013-01-01 17:43:00,47.9,42.0,30.17,North,357,11.5,11.5,80,0.00,CLR,,0.11,WeatherDisplay:10.37,2013-01-01 23:43:00,
2013-01-01 17:48:00,47.7,42.2,30.17,NNE,20,9.2,9.2,81,0.00,CLR,,0.11,WeatherDisplay:10.37,2013-01-01 23:48:00,
2013-01-01 17:53:00,47.5,42.0,30.17,NNE,12,5.8,5.8,81,0.00,CLR,,0.11,WeatherDisplay:10.37,2013-01-01 23:53:00,
2013-01-01 17:58:00,47.3,42.1,30.17,North,359,10.4,10.4,82,0.00,CLR,,0.11,WeatherDisplay:10.37,2013-01-01 23:58:00,
2013-01-01 18:03:00,47.3,42.1,30.18,NNW,338,5.8,5.8,82,0.00,CLR,,0.11,WeatherDisplay:10.37,2013-01-02 00:03:00,
2013-01-01 18:08:00,47.2,42.0,30.18,NE,56,4.6,4.6,82,0.00,CLR,,0.11,WeatherDisplay:10.37,2013-01-02 00:08:00,
2013-01-01 18:13:00,47.1,42.2,30.19,North,1,3.5,3.5,83,0.00,CLR,,0.11,WeatherDisplay:10.37,2013-01-02 00:13:00,
2013-01-01 18:18:00,47.1,41.9,30.18,NNW,340,5.8,5.8,82,0.00,CLR,,0.11,WeatherDisplay:10.37,2013-01-02 00:18:00,
2013-01-01 18:23:00,47.1,42.2,30.18,NNE,21,3.5,3.5,83,0.00,CLR,,0.11,WeatherDisplay:10.37,2013-01-02 00:23:00,
2013-01-01 18:28:00,47.1,42.2,30.18,North,5,6.0,6.0,83,0.00,CLR,,0.11,WeatherDisplay:10.37,2013-01-02 00:28:00,
2013-01-01 18:33:00,47.1,42.2,30.18,North,360,4.6,4.6,83,0.00,CLR,,0.11,WeatherDisplay:10.37,2013-01-02 00:33:00,
2013-01-01 18:38:00,47.0,42.1,30.18,North,352,6.9,6.9,83,0.00,CLR,,0.11,WeatherDisplay:10.37,2013-01-02 00:38:00,
2013-01-01 18:43:00,46.8,41.9,30.18,NNW,343,3.5,3.5,83,0.00,CLR,,0.11,WeatherDisplay:10.37,2013-01-02 00:43:00,
2013-01-01 18:48:00,46.7,42.1,30.19,NNE,23,5.8,5.8,84,0.00,CLR,,0.11,WeatherDisplay:10.37,2013-01-02 00:48:00,
2013-01-01 18:53:00,46.6,42.0,30.20,NNW,345,3.5,3.5,84,0.00,CLR,,0.11,WeatherDisplay:10.37,2013-01-02 00:53:00,
2013-01-01 18:58:00,46.5,41.9,30.19,NNE,12,3.5,3.5,84,0.00,CLR,,0.11,WeatherDisplay:10.37,2013-01-02 00:58:00,
2013-01-01 19:03:00,46.4,41.8,30.20,North,9,4.6,4.6,84,0.00,CLR,,0.11,WeatherDisplay:10.37,2013-01-02 01:03:00,
2013-01-01 19:08:00,46.3,41.7,30.20,NNE,12,3.5,3.5,84,0.00,CLR,,0.11,WeatherDisplay:10.37,2013-01-02 01:08:00,
2013-01-01 19:13:00,46.3,42.0,30.20,NNE,21,3.5,3.5,85,0.00,CLR,,0.11,WeatherDisplay:10.37,2013-01-02 01:13:00,
2013-01-01 19:18:00,46.3,42.0,30.21,NE,43,3.0,3.0,85,0.00,CLR,,0.11,WeatherDisplay:10.37,2013-01-02 01:18:00,
2013-01-01 19:23:00,46.4,42.1,30.21,NE,43,3.5,3.5,85,0.00,CLR,,0.11,WeatherDisplay:10.37,2013-01-02 01:23:00,
2013-01-01 19:28:00,46.3,42.0,30.22,NNE,29,2.3,2.3,85,0.00,CLR,,0.11,WeatherDisplay:10.37,2013-01-02 01:28:00,
2013-01-01 19:33:00,46.4,42.1,30.22,NE,42,3.5,3.5,85,0.00,CLR,,0.11,WeatherDisplay:10.37,2013-01-02 01:33:00,
2013-01-01 19:38:00,46.3,42.0,30.22,North,358,3.5,3.5,85,0.00,CLR,,0.11,WeatherDisplay:10.37,2013-01-02 01:38:00,
2013-01-01 19:43:00,46.2,41.9,30.22,North,349,4.6,4.6,85,0.00,CLR,,0.11,WeatherDisplay:10.37,2013-01-02 01:43:00,
2013-01-01 19:48:00,46.1,42.1,30.22,NE,45,3.5,3.5,86,0.00,CLR,,0.11,WeatherDisplay:10.37,2013-01-02 01:48:00,
2013-01-01 19:53:00,45.9,41.9,30.22,NNE,25,3.5,3.6,86,0.00,CLR,,0.11,WeatherDisplay:10.37,2013-01-02 01:53:00,
2013-01-01 19:58:00,45.6,42.0,30.21,NNE,13,4.6,4.6,87,0.00,CLR,,0.11,WeatherDisplay:10.37,2013-01-02 01:58:00,
2013-01-01 20:03:00,45.4,41.8,30.22,NE,36,4.0,4.0,87,0.00,CLR,,0.11,WeatherDisplay:10.37,2013-01-02 02:03:00,
2013-01-01 20:08:00,45.3,41.7,30.22,NNE,19,3.5,3.5,87,0.00,CLR,,0.11,WeatherDisplay:10.37,2013-01-02 02:08:00,
2013-01-01 20:13:00,45.2,41.9,30.21,North,4,5.8,5.8,88,0.00,CLR,,0.11,WeatherDisplay:10.37,2013-01-02 02:13:00,
2013-01-01 20:18:00,45.1,41.8,30.22,NNE,16,4.6,4.6,88,0.00,CLR,,0.11,WeatherDisplay:10.37,2013-01-02 02:18:00,
2013-01-01 20:23:00,45.0,41.7,30.22,NNE,13,5.8,5.8,88,0.00,CLR,,0.11,WeatherDisplay:10.37,2013-01-02 02:23:00,
2013-01-01 20:28:00,44.9,41.6,30.21,NNE,14,8.1,8.1,88,0.00,CLR,,0.11,WeatherDisplay:10.37,2013-01-02 02:28:00,
2013-01-01 20:33:00,44.8,41.5,30.22,NNE,30,8.1,8.1,88,0.00,CLR,,0.11,WeatherDisplay:10.37,2013-01-02 02:33:00,
2013-01-01 20:38:00,44.7,41.4,30.22,North,5,4.6,4.6,88,0.00,CLR,,0.11,WeatherDisplay:10.37,2013-01-02 02:38:00,
2013-01-01 20:43:00,44.6,41.3,30.23,NNE,30,6.9,6.9,88,0.00,CLR,,0.11,WeatherDisplay:10.37,2013-01-02 02:43:00,
2013-01-01 20:48:00,44.5,41.2,30.22,NNE,30,4.6,4.6,88,0.00,CLR,,0.11,WeatherDisplay:10.37,2013-01-02 02:48:00,
2013-01-01 20:53:00,44.4,41.1,30.22,NNE,25,9.2,9.2,88,0.00,CLR,,0.11,WeatherDisplay:10.37,2013-01-02 02:53:00,
2013-01-01 20:58:00,44.3,41.0,30.22,NNE,27,10.4,10.4,88,0.00,CLR,,0.11,WeatherDisplay:10.37,2013-01-02 02:58:00,
2013-01-01 21:03:00,44.2,40.9,30.22,NE,43,6.9,6.9,88,0.00,CLR,,0.11,WeatherDisplay:10.37,2013-01-02 03:03:00,
2013-01-01 21:08:00,44.1,40.8,30.22,NE,56,8.1,8.1,88,0.00,CLR,,0.11,WeatherDisplay:10.37,2013-01-02 03:08:00,
2013-01-01 21:13:00,44.1,40.8,30.22,NE,55,8.1,8.1,88,0.00,CLR,,0.11,WeatherDisplay:10.37,2013-01-02 03:13:00,
2013-01-01 21:18:00,44.0,40.7,30.22,NNE,17,11.5,11.5,88,0.00,CLR,,0.11,WeatherDisplay:10.37,2013-01-02 03:18:00,
2013-01-01 21:23:00,44.0,40.7,30.21,North,8,10.4,10.4,88,0.00,CLR,,0.11,WeatherDisplay:10.37,2013-01-02 03:23:00,
2013-01-01 21:28:00,43.9,40.6,30.22,NE,49,9.2,9.2,88,0.00,CLR,,0.11,WeatherDisplay:10.37,2013-01-02 03:28:00,
2013-01-01 21:33:00,43.8,40.5,30.22,NE,39,10.0,10.0,88,0.00,CLR,,0.11,WeatherDisplay:10.37,2013-01-02 03:33:00,
2013-01-01 21:38:00,43.7,40.4,30.22,NNE,25,9.2,9.2,88,0.00,CLR,,0.11,WeatherDisplay:10.37,2013-01-02 03:38:00,
2013-01-01 21:43:00,43.7,40.4,30.23,ENE,61,6.9,6.9,88,0.00,CLR,,0.11,WeatherDisplay:10.37,2013-01-02 03:43:00,
2013-01-01 21:48:00,43.5,40.2,30.23,NE,44,11.5,11.5,88,0.00,CLR,,0.11,WeatherDisplay:10.37,2013-01-02 03:48:00,
2013-01-01 21:53:00,43.4,40.4,30.23,NNE,30,11.5,11.5,89,0.00,CLR,,0.11,WeatherDisplay:10.37,2013-01-02 03:53:00,
2013-01-01 21:58:00,43.3,40.0,30.23,NNE,22,8.1,8.1,88,0.00,CLR,,0.11,WeatherDisplay:10.37,2013-01-02 03:58:00,
2013-01-01 22:03:00,43.2,40.2,30.23,NNE,16,9.2,9.2,89,0.00,CLR,,0.11,WeatherDisplay:10.37,2013-01-02 04:03:00,
2013-01-01 22:08:00,43.1,40.1,30.23,NNE,33,8.1,8.1,89,0.00,CLR,,0.11,WeatherDisplay:10.37,2013-01-02 04:08:00,
2013-01-01 22:13:00,43.0,40.0,30.22,NNE,27,8.1,8.1,89,0.00,CLR,,0.11,WeatherDisplay:10.37,2013-01-02 04:13:00,
2013-01-01 22:18:00,42.9,39.9,30.23,NNE,30,6.9,6.9,89,0.00,CLR,,0.11,WeatherDisplay:10.37,2013-01-02 04:18:00,
2013-01-01 22:23:00,42.8,39.8,30.23,NNE,27,9.2,9.2,89,0.00,CLR,,0.11,WeatherDisplay:10.37,2013-01-02 04:23:00,
2013-01-01 22:28:00,42.7,39.7,30.23,NNE,30,11.5,11.5,89,0.00,CLR,,0.11,WeatherDisplay:10.37,2013-01-02 04:28:00,
2013-01-01 22:33:00,42.6,39.6,30.23,NE,53,10.4,10.4,89,0.00,CLR,,0.11,WeatherDisplay:10.37,2013-01-02 04:33:00,
2013-01-01 22:38:00,42.5,39.5,30.22,North,11,11.5,11.5,89,0.00,CLR,,0.11,WeatherDisplay:10.37,2013-01-02 04:38:00,
2013-01-01 22:43:00,42.4,39.4,30.23,NNE,20,11.5,11.5,89,0.00,CLR,,0.11,WeatherDisplay:10.37,2013-01-02 04:43:00,
2013-01-01 22:48:00,42.4,39.4,30.23,NNE,16,8.1,8.1,89,0.00,CLR,,0.11,WeatherDisplay:10.37,2013-01-02 04:48:00,
2013-01-01 22:53:00,42.3,39.3,30.23,NNW,333,6.9,6.9,89,0.00,CLR,,0.11,WeatherDisplay:10.37,2013-01-02 04:53:00,
2013-01-01 22:58:00,42.3,39.3,30.23,NNE,12,8.1,8.1,89,0.00,CLR,,0.11,WeatherDisplay:10.37,2013-01-02 04:58:00,
2013-01-01 23:00:00,42.2,39.2,30.23,ENE,58,8.1,8.1,89,0.00,CLR,,0.11,WeatherDisplay:10.37,2013-01-02 05:00:00,
2013-01-01 23:01:00,42.2,39.2,30.23,NE,44,8.1,8.1,89,0.00,CLR,,0.11,WeatherDisplay:10.37,2013-01-02 05:01:00,
2013-01-01 23:02:00,42.2,39.2,30.23,NNE,33,5.8,5.8,89,0.00,CLR,,0.11,WeatherDisplay:10.37,2013-01-02 05:02:00,
2013-01-01 23:07:00,42.1,39.1,30.24,NNW,340,4.6,4.6,89,0.00,CLR,,0.11,WeatherDisplay:10.37,2013-01-02 05:07:00,
2013-01-01 23:12:00,42.1,39.1,30.24,NNE,23,5.8,5.8,89,0.00,CLR,,0.11,WeatherDisplay:10.37,2013-01-02 05:12:00,
2013-01-01 23:17:00,42.0,39.0,30.23,NNE,17,5.8,5.8,89,0.00,CLR,,0.11,WeatherDisplay:10.37,2013-01-02 05:17:00,
2013-01-01 23:22:00,42.0,39.0,30.23,North,8,3.5,3.5,89,0.00,CLR,,0.11,WeatherDisplay:10.37,2013-01-02 05:22:00,
2013-01-01 23:27:00,42.0,39.0,30.23,NNE,19,5.8,5.8,89,0.00,CLR,,0.11,WeatherDisplay:10.37,2013-01-02 05:27:00,
2013-01-01 23:32:00,42.0,39.0,30.23,NNE,27,4.6,4.6,89,0.00,CLR,,0.11,WeatherDisplay:10.37,2013-01-02 05:32:00,
2013-01-01 23:37:00,42.0,39.0,30.24,NNE,33,5.8,5.8,89,0.00,CLR,,0.11,WeatherDisplay:10.37,2013-01-02 05:37:00,
2013-01-01 23:42:00,41.9,38.9,30.24,NE,36,8.1,8.1,89,0.00,CLR,,0.11,WeatherDisplay:10.37,2013-01-02 05:42:00,
2013-01-01 23:47:00,41.9,38.9,30.24,NE,37,5.8,5.8,89,0.00,CLR,,0.11,WeatherDisplay:10.37,2013-01-02 05:47:00,
2013-01-01 23:52:00,41.9,38.9,30.24,NNE,33,9.2,9.2,89,0.00,CLR,,0.11,WeatherDisplay:10.37,2013-01-02 05:52:00,
2013-01-01 23:57:00,42.0,39.0,30.24,North,9,13.8,13.8,89,0.00,CLR,,0.11,WeatherDisplay:10.37,2013-01-02 05:57:00,